| time (UTC) | temp C | wind direction | speed KPH | gust KPH | rain 1hr cm | rain 24hr cm | rain mn cm | humidity % | barometer mb |
| 20260506012400 | 8 | 180 | 3.2 | 4.8 | 0.00 | 0.99 | 0.99 | 74 | 923.6 |
| 20260506011857 | 8 | 226 | 11.3 | 17.7 | 0.00 | 0.99 | 0.99 | 74 | 923.5 |
| 20260506011354 | 8 | 228 | 12.9 | 16.1 | 0.00 | 0.99 | 0.99 | 74 | 923.2 |
| 20260506010851 | 9 | 255 | 8.0 | 9.7 | 0.00 | 0.99 | 0.99 | 75 | 923.9 |
| 20260506010350 | 9 | 243 | 6.4 | 9.7 | 0.00 | 0.99 | 0.99 | 76 | 923.9 |
| 20260506005846 | 9 | 219 | 6.4 | 11.3 | 0.00 | 0.99 | 0.99 | 79 | 923.5 |
| 20260506005343 | 8 | 173 | 4.8 | 9.7 | 0.00 | 0.99 | 0.99 | 80 | 923.7 |
| 20260506004838 | 8 | 151 | 4.8 | 8.0 | 0.00 | 0.99 | 0.99 | 79 | 923.5 |
| 20260506004337 | 8 | 105 | 1.6 | 4.8 | 0.00 | 0.99 | 0.99 | 81 | 923.6 |
| 20260506003833 | 8 | 203 | 4.8 | 8.0 | 0.00 | 0.99 | 0.99 | 82 | 923.5 |
| 20260506003329 | 8 | 219 | 1.6 | 4.8 | 0.00 | 0.99 | 0.99 | 84 | 923.6 |
| 20260506002825 | 8 | 117 | 6.4 | 8.0 | 0.00 | 0.99 | 0.99 | 82 | 923.7 |
| 20260506002322 | 8 | 93 | 0.0 | 3.2 | 0.00 | 0.99 | 0.99 | 82 | 923.7 |
| 20260506001817 | 8 | 64 | 0.0 | 3.2 | 0.00 | 0.99 | 0.99 | 82 | 923.2 |
| 20260506001315 | 8 | 115 | 1.6 | 8.0 | 0.18 | 0.99 | 0.99 | 81 | 923.6 |
| 20260506000812 | 8 | 7 | 3.2 | 4.8 | 0.18 | 0.99 | 0.99 | 79 | 923.3 |
| 20260506000310 | 8 | 11 | 1.6 | 4.8 | 0.13 | 0.97 | 0.97 | 79 | 923.5 |
| 20260505235806 | 8 | 205 | 9.7 | 17.7 | 0.30 | 0.97 | 0.97 | 82 | 923.7 |
| 20260505235305 | 9 | 174 | 8.0 | 11.3 | 0.18 | 0.94 | 0.94 | 81 | 923.6 |
| 20260505234800 | 10 | 148 | 1.6 | 14.5 | 0.00 | 0.91 | 0.91 | 78 | 923.5 |
| 20260505234258 | 9 | 314 | 6.4 | 11.3 | 0.00 | 0.91 | 0.91 | 72 | 923.5 |
| 20260505233755 | 10 | 217 | 9.7 | 20.9 | 0.00 | 0.91 | 0.91 | 75 | 923.5 |
| 20260505233253 | 10 | 243 | 9.7 | 11.3 | 0.00 | 0.91 | 0.91 | 74 | 923.8 |
| 20260505232750 | 10 | 254 | 9.7 | 12.9 | 0.00 | 0.91 | 0.91 | 74 | 923.6 |
| 20260505232247 | 10 | 210 | 8.0 | 12.9 | 0.00 | 0.91 | 0.91 | 73 | 923.8 |
| 20260505231743 | 10 | 245 | 6.4 | 16.1 | 0.00 | 0.91 | 0.91 | 73 | 923.7 |
| 20260505231242 | 10 | 255 | 11.3 | 14.5 | 0.00 | 0.91 | 0.91 | 72 | 923.8 |
| 20260505230740 | 10 | 274 | 8.0 | 12.9 | 0.00 | 0.91 | 0.91 | 71 | 924.0 |
| 20260505230237 | 10 | 283 | 11.3 | 16.1 | 0.00 | 0.91 | 0.91 | 72 | 923.9 |
| 20260505225733 | 10 | 223 | 8.0 | 11.3 | 0.00 | 0.91 | 0.91 | 73 | 923.9 |
| 20260505225230 | 10 | 226 | 9.7 | 11.3 | 0.00 | 0.91 | 0.91 | 73 | 924.1 |
| 20260505224725 | 10 | 0 | 6.4 | 11.3 | 0.00 | 0.91 | 0.91 | 73 | 924.1 |
| 20260505224224 | 9 | 188 | 6.4 | 20.9 | 0.00 | 0.91 | 0.91 | 74 | 924.4 |
| 20260505223721 | 9 | 234 | 9.7 | 12.9 | 0.00 | 0.91 | 0.91 | 73 | 924.3 |
| 20260505223217 | 9 | 218 | 4.8 | 16.1 | 0.00 | 0.91 | 0.91 | 74 | 924.3 |
| 20260505222713 | 8 | 200 | 6.4 | 9.7 | 0.00 | 0.91 | 0.91 | 75 | 924.4 |
| 20260505222209 | 8 | 230 | 8.0 | 11.3 | 0.00 | 0.91 | 0.91 | 76 | 924.3 |
| 20260505221707 | 8 | 245 | 8.0 | 12.9 | 0.00 | 0.91 | 0.91 | 76 | 924.3 |
| 20260505221203 | 8 | 250 | 6.4 | 14.5 | 0.00 | 0.91 | 0.91 | 76 | 924.6 |
| 20260505220700 | 9 | 259 | 6.4 | 11.3 | 0.00 | 0.91 | 0.91 | 75 | 924.3 |
| 20260505220158 | 8 | 275 | 4.8 | 12.9 | 0.00 | 0.91 | 0.91 | 74 | 924.8 |
| 20260505215655 | 9 | 236 | 8.0 | 16.1 | 0.00 | 0.91 | 0.91 | 73 | 924.6 |
| 20260505215153 | 8 | 272 | 6.4 | 14.5 | 0.00 | 0.91 | 0.91 | 76 | 924.7 |
| 20260505214651 | 8 | 219 | 4.8 | 9.7 | 0.00 | 0.91 | 0.91 | 77 | 924.8 |
| 20260505214148 | 8 | 347 | 4.8 | 8.0 | 0.00 | 0.91 | 0.91 | 77 | 924.6 |
| 20260505213645 | 8 | 250 | 1.6 | 8.0 | 0.00 | 0.91 | 0.91 | 77 | 924.8 |
| 20260505213142 | 8 | 335 | 4.8 | 9.7 | 0.00 | 0.91 | 0.91 | 77 | 924.7 |
| 20260505212638 | 8 | 315 | 3.2 | 4.8 | 0.00 | 0.91 | 0.91 | 76 | 924.8 |
| 20260505212136 | 8 | 226 | 4.8 | 11.3 | 0.00 | 0.91 | 0.91 | 75 | 924.8 |
| 20260505211632 | 8 | 199 | 4.8 | 9.7 | 0.00 | 0.91 | 0.91 | 77 | 924.9 |
| 20260505211130 | 7 | 120 | 3.2 | 8.0 | 0.00 | 0.91 | 0.91 | 78 | 924.7 |
| 20260505210626 | 7 | 208 | 4.8 | 11.3 | 0.00 | 0.91 | 0.91 | 78 | 924.6 |
| 20260505210123 | 7 | 216 | 4.8 | 8.0 | 0.00 | 0.91 | 0.91 | 78 | 924.8 |
| 20260505205621 | 7 | 227 | 4.8 | 11.3 | 0.00 | 0.91 | 0.91 | 77 | 925.1 |
| 20260505205119 | 7 | 337 | 9.7 | 12.9 | 0.00 | 0.91 | 0.91 | 78 | 925.1 |
| 20260505204615 | 7 | 182 | 4.8 | 8.0 | 0.00 | 0.91 | 0.91 | 81 | 925.3 |
| 20260505204113 | 6 | 333 | 6.4 | 9.7 | 0.00 | 0.91 | 0.91 | 85 | 925.2 |
| 20260505203609 | 6 | 273 | 8.0 | 9.7 | 0.00 | 0.91 | 0.91 | 87 | 925.2 |
| 20260505203107 | 6 | 169 | 4.8 | 4.8 | 0.00 | 0.91 | 0.91 | 89 | 925.4 |
| 20260505202602 | 5 | 311 | 3.2 | 9.7 | 0.00 | 0.91 | 0.91 | 91 | 925.7 |
| 20260505202058 | 5 | 337 | 3.2 | 9.7 | 0.00 | 0.91 | 0.91 | 92 | 925.4 |
| 20260505201555 | 5 | 238 | 4.8 | 9.7 | 0.00 | 0.91 | 0.91 | 92 | 925.4 |
| 20260505201053 | 5 | 27 | 1.6 | 3.2 | 0.00 | 0.91 | 0.91 | 93 | 925.4 |
| 20260505200550 | 5 | 300 | 3.2 | 4.8 | 0.00 | 0.91 | 0.91 | 93 | 925.3 |
| 20260505200047 | 5 | 261 | 1.6 | 8.0 | 0.00 | 0.91 | 0.91 | 92 | 925.3 |
| 20260505195543 | 5 | 192 | 4.8 | 9.7 | 0.00 | 0.91 | 0.91 | 92 | 925.6 |
| 20260505195041 | 5 | 22 | 0.0 | 0.0 | 0.00 | 0.91 | 0.91 | 93 | 925.4 |
| 20260505194538 | 5 | 329 | 1.6 | 3.2 | 0.00 | 0.91 | 0.91 | 93 | 925.2 |
| 20260505194033 | 5 | 89 | 4.8 | 4.8 | 0.00 | 0.91 | 0.91 | 93 | 925.2 |
| 20260505193531 | 5 | 147 | 6.4 | 11.3 | 0.00 | 0.91 | 0.91 | 94 | 925.2 |
| 20260505193028 | 5 | 93 | 3.2 | 4.8 | 0.00 | 0.91 | 0.91 | 94 | 925.1 |
| 20260505192526 | 4 | 167 | 3.2 | 8.0 | 0.18 | 0.91 | 0.91 | 95 | 925.4 |
| 20260505192024 | 4 | 127 | 4.8 | 9.7 | 0.30 | 0.91 | 0.91 | 95 | 925.4 |
| 20260505191522 | 4 | 122 | 4.8 | 4.8 | 0.30 | 0.89 | 0.89 | 95 | 925.5 |
| 20260505191020 | 3 | 87 | 3.2 | 4.8 | 0.48 | 0.86 | 0.86 | 95 | 925.5 |
| 20260505190514 | 3 | 61 | 1.6 | 4.8 | 0.61 | 0.84 | 0.84 | 95 | 925.7 |
| 20260505190010 | 4 | 80 | 1.6 | 3.2 | 0.61 | 0.79 | 0.79 | 96 | 925.6 |
| 20260505185507 | 3 | 76 | 0.0 | 0.0 | 0.61 | 0.74 | 0.74 | 96 | 925.9 |
| 20260505185003 | 3 | 37 | 0.0 | 0.0 | 0.66 | 0.66 | 0.66 | 96 | 925.3 |
| 20260505184500 | 3 | 39 | 0.0 | 0.0 | 0.79 | 0.61 | 0.61 | 96 | 925.6 |
| 20260505183957 | 3 | 49 | 0.0 | 0.0 | 0.48 | 0.53 | 0.53 | 96 | 925.6 |
| 20260505183454 | 2 | 46 | 0.0 | 0.0 | 0.48 | 0.48 | 0.48 | 96 | 925.7 |
| 20260505182950 | 2 | 53 | 0.0 | 0.0 | 0.48 | 0.43 | 0.43 | 96 | 925.4 |
| 20260505182447 | 2 | 50 | 0.0 | 0.0 | 0.43 | 0.41 | 0.41 | 96 | 925.5 |
| 20260505181944 | 2 | 55 | 0.0 | 0.0 | 0.13 | 0.36 | 0.36 | 96 | 925.7 |
| 20260505181441 | 2 | 71 | 0.0 | 0.0 | 0.00 | 0.33 | 0.33 | 96 | 925.7 |
| 20260505180938 | 2 | 90 | 0.0 | 0.0 | 0.00 | 0.33 | 0.33 | 96 | 925.6 |
| 20260505180434 | 2 | 87 | 3.2 | 4.8 | 0.00 | 0.33 | 0.33 | 96 | 925.5 |
| 20260505175931 | 2 | 80 | 1.6 | 4.8 | 0.00 | 0.33 | 0.33 | 96 | 925.6 |
| 20260505175427 | 2 | 100 | 1.6 | 3.2 | 0.00 | 0.33 | 0.33 | 95 | 925.4 |
| 20260505174924 | 2 | 98 | 1.6 | 3.2 | 0.00 | 0.33 | 0.33 | 95 | 925.7 |
| 20260505174422 | 1 | 140 | 3.2 | 3.2 | 0.00 | 0.33 | 0.33 | 95 | 925.7 |
| 20260505173917 | 1 | 119 | 3.2 | 4.8 | 0.00 | 0.33 | 0.33 | 95 | 925.5 |
| 20260505173414 | 1 | 122 | 0.0 | 3.2 | 0.00 | 0.33 | 0.33 | 95 | 925.9 |
| 20260505172911 | 1 | 96 | 1.6 | 3.2 | 0.00 | 0.33 | 0.33 | 95 | 925.7 |
| 20260505172409 | 1 | 60 | 0.0 | 1.6 | 0.00 | 0.33 | 0.33 | 95 | 925.7 |
| 20260505171908 | 1 | 82 | 3.2 | 3.2 | 0.00 | 0.33 | 0.33 | 95 | 925.7 |
| 20260505171405 | 1 | 54 | 4.8 | 4.8 | 0.00 | 0.33 | 0.33 | 95 | 925.6 |
| 20260505170902 | 1 | 51 | 4.8 | 8.0 | 0.18 | 0.33 | 0.33 | 95 | 925.7 |
| 20260505170359 | 2 | 65 | 1.6 | 12.9 | 0.18 | 0.33 | 0.33 | 95 | 925.4 |
| 20260505165854 | 2 | 37 | 1.6 | 14.5 | 0.18 | 0.30 | 0.30 | 95 | 925.6 |
| 20260505165350 | 2 | 63 | 3.2 | 11.3 | 0.30 | 0.30 | 0.30 | 95 | 925.4 |
| 20260505164846 | 2 | 79 | 1.6 | 9.7 | 0.13 | 0.28 | 0.28 | 95 | 925.5 |
| 20260505164342 | 2 | 80 | 4.8 | 9.7 | 0.18 | 0.25 | 0.25 | 95 | 925.7 |
| 20260505163841 | 2 | 70 | 4.8 | 11.3 | 0.18 | 0.25 | 0.25 | 95 | 925.6 |
| 20260505163339 | 2 | 67 | 3.2 | 3.2 | 0.00 | 0.23 | 0.23 | 94 | 926.3 |
| 20260505162838 | 2 | 70 | 3.2 | 9.7 | 0.00 | 0.23 | 0.23 | 94 | 926.2 |
| 20260505162333 | 1 | 68 | 8.0 | 11.3 | 0.00 | 0.23 | 0.23 | 94 | 926.5 |
| 20260505161831 | 1 | 78 | 6.4 | 9.7 | 0.00 | 0.23 | 0.23 | 94 | 926.7 |
| 20260505161328 | 1 | 41 | 1.6 | 4.8 | 0.00 | 0.23 | 0.23 | 93 | 927.0 |
| 20260505160825 | 2 | 49 | 6.4 | 9.7 | 0.00 | 0.23 | 0.23 | 93 | 926.5 |
| 20260505160323 | 2 | 61 | 6.4 | 14.5 | 0.00 | 0.23 | 0.23 | 92 | 925.6 |
| 20260505153301 | 4 | 37 | 11.3 | 16.1 | 0.00 | 0.10 | 0.10 | 88 | 924.8 |
| 20260505152800 | 4 | 81 | 8.0 | 14.5 | 0.00 | 0.10 | 0.10 | 88 | 924.8 |
| 20260505152256 | 4 | 36 | 8.0 | 11.3 | 0.00 | 0.10 | 0.10 | 87 | 924.7 |
| 20260505151755 | 4 | 71 | 9.7 | 14.5 | 0.00 | 0.10 | 0.10 | 88 | 924.7 |
| 20260505151253 | 4 | 104 | 8.0 | 11.3 | 0.00 | 0.10 | 0.10 | 88 | 924.3 |
| 20260505150750 | 4 | 106 | 8.0 | 12.9 | 0.00 | 0.10 | 0.10 | 89 | 924.6 |
| 20260505150247 | 4 | 114 | 8.0 | 9.7 | 0.00 | 0.10 | 0.10 | 89 | 924.6 |
| 20260505140211 | 4 | 70 | 3.2 | 11.3 | 0.00 | 0.08 | 0.08 | 88 | 924.7 |
| 20260505130135 | 5 | 92 | 14.5 | 16.1 | 0.00 | 0.05 | 0.05 | 78 | 923.9 |
| 20260505124624 | 5 | 87 | 11.3 | 17.7 | 0.00 | 0.05 | 0.05 | 80 | 923.9 |
| 20260505124121 | 5 | 97 | 14.5 | 20.9 | 0.00 | 0.05 | 0.05 | 80 | 923.9 |
| 20260505123617 | 5 | 90 | 11.3 | 12.9 | 0.00 | 0.05 | 0.05 | 81 | 923.7 |
| 20260505123114 | 5 | 70 | 6.4 | 14.5 | 0.00 | 0.05 | 0.05 | 81 | 923.7 |
| 20260505122611 | 5 | 102 | 11.3 | 12.9 | 0.00 | 0.05 | 0.05 | 82 | 923.9 |
| 20260505122108 | 5 | 94 | 6.4 | 12.9 | 0.00 | 0.05 | 0.05 | 84 | 923.9 |
| 20260505121604 | 5 | 66 | 8.0 | 11.3 | 0.00 | 0.05 | 0.05 | 85 | 923.8 |
| 20260505121101 | 5 | 55 | 11.3 | 14.5 | 0.00 | 0.05 | 0.05 | 87 | 923.9 |
| 20260505120557 | 5 | 79 | 6.4 | 12.9 | 0.00 | 0.05 | 0.05 | 87 | 923.9 |
| 20260505120053 | 5 | 61 | 3.2 | 8.0 | 0.00 | 0.05 | 0.05 | 87 | 923.8 |
| 20260505115547 | 5 | 55 | 4.8 | 9.7 | 0.00 | 0.05 | 0.05 | 86 | 923.7 |
| 20260505115045 | 5 | 65 | 4.8 | 11.3 | 0.18 | 0.05 | 0.05 | 85 | 923.9 |
| 20260505114542 | 6 | 104 | 4.8 | 11.3 | 0.30 | 0.05 | 0.05 | 84 | 923.7 |
| 20260505114038 | 6 | 46 | 1.6 | 9.7 | 0.13 | 0.03 | 0.03 | 81 | 923.7 |
| 20260505113535 | 6 | 56 | 3.2 | 9.7 | 0.00 | 0.00 | 0.00 | 76 | 923.7 |
| 20260505113032 | 6 | 87 | 6.4 | 9.7 | 0.00 | 0.00 | 0.00 | 76 | 923.7 |
| 20260505112528 | 6 | 79 | 1.6 | 9.7 | 0.00 | 0.00 | 0.00 | 75 | 923.8 |
| 20260505112026 | 7 | 33 | 0.0 | 0.0 | 0.00 | 0.00 | 0.00 | 74 | 923.7 |
| 20260505111520 | 7 | 32 | 1.6 | 3.2 | 0.00 | 0.00 | 0.00 | 74 | 923.8 |
| 20260505111017 | 7 | 351 | 4.8 | 8.0 | 0.00 | 0.00 | 0.00 | 74 | 923.7 |
| 20260505110513 | 7 | 2 | 4.8 | 8.0 | 0.00 | 0.00 | 0.00 | 74 | 923.8 |
| 20260505101945 | 8 | 1 | 6.4 | 12.9 | 0.00 | 0.00 | 0.00 | 76 | 923.5 |
| 20260505101443 | 8 | 354 | 0.0 | 3.2 | 0.00 | 0.00 | 0.00 | 75 | 923.5 |
| 20260505100939 | 8 | 6 | 0.0 | 0.0 | 0.00 | 0.00 | 0.00 | 75 | 923.5 |
| 20260505100438 | 8 | 340 | 0.0 | 4.8 | 0.00 | 0.00 | 0.00 | 74 | 923.5 |
| 20260505095933 | 8 | 272 | 4.8 | 9.7 | 0.00 | 0.00 | 0.00 | 73 | 923.3 |
| 20260505095430 | 8 | 257 | 0.0 | 0.0 | 0.00 | 0.00 | 0.00 | 71 | 923.3 |
| 20260505094926 | 9 | 258 | 0.0 | 4.8 | 0.00 | 0.00 | 0.00 | 69 | 923.5 |
| 20260505094423 | 9 | 299 | 4.8 | 9.7 | 0.00 | 0.00 | 0.00 | 68 | 923.3 |
| 20260505093919 | 9 | 226 | 8.0 | 9.7 | 0.00 | 0.00 | 0.00 | 66 | 923.5 |
| 20260505093416 | 9 | 254 | 8.0 | 9.7 | 0.00 | 0.00 | 0.00 | 65 | 923.2 |
| 20260505092913 | 9 | 254 | 6.4 | 8.0 | 0.00 | 0.00 | 0.00 | 66 | 923.6 |
| 20260505092411 | 9 | 214 | 1.6 | 8.0 | 0.00 | 0.00 | 0.00 | 67 | 923.2 |
| 20260505091908 | 9 | 189 | 3.2 | 9.7 | 0.00 | 0.00 | 0.00 | 67 | 923.6 |
| 20260505091406 | 9 | 202 | 6.4 | 9.7 | 0.00 | 0.00 | 0.00 | 67 | 923.6 |
| 20260505090904 | 10 | 216 | 4.8 | 12.9 | 0.00 | 0.00 | 0.00 | 66 | 923.3 |
| 20260505090402 | 10 | 236 | 9.7 | 16.1 | 0.00 | 0.00 | 0.00 | 65 | 923.6 |
| 20260505085859 | 10 | 185 | 6.4 | 12.9 | 0.00 | 0.00 | 0.00 | 64 | 923.6 |
| 20260505085357 | 10 | 192 | 8.0 | 12.9 | 0.00 | 0.00 | 0.00 | 63 | 923.5 |
| 20260505084854 | 10 | 195 | 4.8 | 11.3 | 0.00 | 0.00 | 0.00 | 63 | 923.5 |
| 20260505084352 | 10 | 139 | 4.8 | 12.9 | 0.00 | 0.00 | 0.00 | 63 | 923.6 |
| 20260505083850 | 10 | 204 | 8.0 | 12.9 | 0.00 | 0.00 | 0.00 | 62 | 923.3 |
| 20260505083347 | 10 | 200 | 12.9 | 17.7 | 0.00 | 0.00 | 0.00 | 62 | 923.3 |
| 20260505082843 | 10 | 213 | 4.8 | 9.7 | 0.00 | 0.00 | 0.00 | 62 | 923.5 |
| 20260505082339 | 10 | 189 | 0.0 | 9.7 | 0.00 | 0.00 | 0.00 | 61 | 923.3 |
| 20260505081836 | 10 | 203 | 11.3 | 12.9 | 0.00 | 0.00 | 0.00 | 60 | 923.5 |
| 20260505081333 | 10 | 193 | 8.0 | 11.3 | 0.00 | 0.00 | 0.00 | 59 | 923.6 |
| 20260505080830 | 10 | 169 | 3.2 | 11.3 | 0.00 | 0.00 | 0.00 | 58 | 923.7 |
| 20260505080325 | 10 | 182 | 8.0 | 9.7 | 0.00 | 0.00 | 0.00 | 59 | 923.3 |
| 20260505075821 | 10 | 97 | 0.0 | 0.0 | 0.00 | 0.00 | 0.00 | 59 | 923.8 |
| 20260505075318 | 10 | 37 | 0.0 | 0.0 | 0.00 | 0.00 | 0.00 | 60 | 923.5 |
| 20260505074816 | 10 | 108 | 0.0 | 0.0 | 0.00 | 0.00 | 0.00 | 60 | 923.6 |
| 20260505074313 | 10 | 159 | 0.0 | 0.0 | 0.00 | 0.00 | 0.00 | 60 | 923.5 |
| 20260505073810 | 10 | 126 | 0.0 | 0.0 | 0.00 | 0.00 | 0.00 | 61 | 923.5 |
| 20260505073308 | 10 | 125 | 0.0 | 0.0 | 0.00 | 0.00 | 0.00 | 60 | 923.5 |
| 20260505072805 | 10 | 223 | 0.0 | 3.2 | 0.00 | 0.00 | 0.00 | 62 | 923.2 |
| 20260505072301 | 9 | 51 | 0.0 | 1.6 | 0.00 | 0.00 | 0.00 | 62 | 923.3 |
| 20260505071756 | 8 | 85 | 0.0 | 8.0 | 0.00 | 0.00 | 0.00 | 65 | 923.6 |
| 20260505071253 | 7 | 130 | 0.0 | 1.6 | 0.00 | 0.00 | 0.00 | 69 | 923.3 |
| 20260505070751 | 7 | 15 | 1.6 | 3.2 | 0.00 | 0.00 | 0.00 | 70 | 923.6 |
| 20260505070247 | 8 | 47 | 11.3 | 14.5 | 0.00 | 0.00 | 0.00 | 68 | 923.5 |
| 20260505065743 | 8 | 59 | 0.0 | 0.0 | 0.00 | 0.00 | 0.00 | 65 | 923.0 |
| 20260505065240 | 9 | 64 | 0.0 | 0.0 | 0.00 | 0.00 | 0.00 | 63 | 923.2 |
| 20260505064737 | 9 | 103 | 0.0 | 0.0 | 0.00 | 0.00 | 0.00 | 61 | 923.3 |
| 20260505064234 | 9 | 188 | 0.0 | 0.0 | 0.00 | 0.00 | 0.00 | 61 | 923.3 |
| 20260505063732 | 9 | 83 | 0.0 | 0.0 | 0.00 | 0.00 | 0.00 | 62 | 923.6 |
| 20260505063228 | 9 | 104 | 0.0 | 0.0 | 0.00 | 0.00 | 0.00 | 62 | 923.0 |
| 20260505062724 | 9 | 69 | 0.0 | 0.0 | 0.00 | 0.00 | 0.00 | 64 | 923.1 |
| 20260505062222 | 8 | 71 | 0.0 | 0.0 | 0.00 | 0.00 | 0.00 | 64 | 923.1 |
| 20260505061719 | 8 | 74 | 0.0 | 0.0 | 0.00 | 0.00 | 0.00 | 66 | 923.3 |
| 20260505061217 | 8 | 80 | 0.0 | 0.0 | 0.00 | 0.00 | 0.00 | 66 | 923.2 |
| 20260505060714 | 8 | 69 | 0.0 | 0.0 | 0.00 | 0.00 | 0.00 | 66 | 923.1 |
| 20260505060211 | 8 | 54 | 0.0 | 0.0 | 0.00 | 0.00 | 0.00 | 68 | 923.2 |
| 20260505055706 | 8 | 50 | 0.0 | 1.6 | 0.00 | 0.00 | 0.00 | 68 | 923.0 |
| 20260505055203 | 8 | 70 | 0.0 | 0.0 | 0.00 | 0.00 | 0.00 | 67 | 923.0 |
| 20260505054700 | 8 | 60 | 1.6 | 1.6 | 0.00 | 0.00 | 0.00 | 66 | 923.1 |
| 20260505054158 | 9 | 47 | 0.0 | 3.2 | 0.00 | 0.00 | 0.00 | 64 | 923.1 |
| 20260505053656 | 9 | 52 | 0.0 | 1.6 | 0.00 | 0.00 | 0.00 | 65 | 923.2 |
| 20260505053152 | 10 | 47 | 0.0 | 0.0 | 0.00 | 0.00 | 0.00 | 63 | 923.1 |
| 20260505052649 | 10 | 30 | 0.0 | 0.0 | 0.00 | 0.00 | 0.00 | 60 | 923.3 |
| 20260505052146 | 10 | 30 | 0.0 | 0.0 | 0.00 | 0.00 | 0.00 | 62 | 923.3 |
| 20260505051643 | 10 | 79 | 0.0 | 0.0 | 0.00 | 0.00 | 0.00 | 64 | 923.6 |
| 20260505051141 | 10 | 108 | 0.0 | 1.6 | 0.00 | 0.00 | 0.00 | 63 | 923.5 |
| 20260505050639 | 10 | 94 | 0.0 | 0.0 | 0.00 | 0.00 | 0.00 | 63 | 923.6 |
| 20260505050137 | 10 | 81 | 0.0 | 3.2 | 0.00 | 0.00 | 0.00 | 62 | 923.5 |
| 20260505041606 | 10 | 95 | 0.0 | 0.0 | 0.00 | 0.00 | 0.00 | 58 | 923.8 |
| 20260505041104 | 10 | 137 | 0.0 | 0.0 | 0.00 | 0.00 | 0.00 | 61 | 923.8 |
| 20260505040601 | 10 | 72 | 0.0 | 0.0 | 0.00 | 0.00 | 0.00 | 61 | 923.6 |
| 20260505040058 | 10 | 49 | 0.0 | 0.0 | 0.00 | 0.00 | 0.00 | 62 | 923.6 |
| 20260505035554 | 10 | 55 | 0.0 | 3.2 | 0.00 | 0.00 | 0.00 | 60 | 923.7 |
| 20260505035051 | 10 | 54 | 0.0 | 1.6 | 0.00 | 0.00 | 0.00 | 62 | 923.3 |
| 20260505034547 | 11 | 71 | 0.0 | 0.0 | 0.00 | 0.00 | 0.00 | 54 | 923.2 |
| 20260505034044 | 11 | 78 | 0.0 | 0.0 | 0.00 | 0.00 | 0.00 | 55 | 923.2 |
| 20260505033541 | 11 | 78 | 0.0 | 0.0 | 0.00 | 0.00 | 0.00 | 56 | 923.0 |
| 20260505033040 | 11 | 89 | 0.0 | 0.0 | 0.00 | 0.00 | 0.00 | 57 | 923.0 |
| 20260505032537 | 11 | 68 | 0.0 | 0.0 | 0.00 | 0.00 | 0.00 | 57 | 923.2 |
| 20260505032033 | 12 | 62 | 1.6 | 1.6 | 0.00 | 0.00 | 0.00 | 58 | 922.9 |
| 20260505031531 | 12 | 20 | 0.0 | 0.0 | 0.00 | 0.00 | 0.00 | 52 | 923.1 |
| 20260505031027 | 12 | 20 | 0.0 | 0.0 | 0.00 | 0.00 | 0.00 | 52 | 922.9 |
| 20260505030524 | 11 | 20 | 0.0 | 0.0 | 0.00 | 0.00 | 0.00 | 53 | 922.9 |
| 20260505030020 | 12 | 19 | 0.0 | 0.0 | 0.00 | 0.00 | 0.00 | 55 | 922.9 |
| 20260505025516 | 12 | 18 | 0.0 | 0.0 | 0.00 | 0.00 | 0.00 | 50 | 922.9 |
| 20260505025015 | 12 | 18 | 0.0 | 0.0 | 0.00 | 0.00 | 0.00 | 49 | 923.0 |
| 20260505024511 | 12 | 10 | 0.0 | 0.0 | 0.00 | 0.00 | 0.00 | 49 | 922.7 |
| 20260505024009 | 12 | 16 | 0.0 | 0.0 | 0.00 | 0.00 | 0.00 | 49 | 922.7 |
| 20260505023505 | 12 | 342 | 0.0 | 0.0 | 0.00 | 0.00 | 0.00 | 49 | 922.5 |
| 20260505023003 | 12 | 36 | 0.0 | 0.0 | 0.00 | 0.00 | 0.00 | 49 | 922.5 |
| 20260505022500 | 12 | 7 | 0.0 | 0.0 | 0.00 | 0.00 | 0.00 | 50 | 922.7 |
| 20260505021958 | 13 | 8 | 0.0 | 3.2 | 0.00 | 0.00 | 0.00 | 50 | 922.5 |
| 20260505021454 | 13 | 310 | 3.2 | 3.2 | 0.00 | 0.00 | 0.00 | 49 | 922.5 |
| 20260505020949 | 13 | 288 | 0.0 | 8.0 | 0.00 | 0.00 | 0.00 | 49 | 922.8 |
| 20260505020445 | 13 | 355 | 0.0 | 8.0 | 0.00 | 0.00 | 0.00 | 48 | 922.4 |
| 20260505015942 | 14 | 350 | 0.0 | 0.0 | 0.00 | 0.00 | 0.00 | 47 | 922.3 |
| 20260505015439 | 13 | 317 | 0.0 | 8.0 | 0.00 | 0.00 | 0.00 | 47 | 922.5 |
| 20260505014937 | 13 | 359 | 0.0 | 4.8 | 0.00 | 0.00 | 0.00 | 47 | 922.3 |
| 20260505014433 | 14 | 334 | 0.0 | 3.2 | 0.00 | 0.00 | 0.00 | 47 | 922.4 |
| 20260505013930 | 14 | 283 | 4.8 | 9.7 | 0.00 | 0.00 | 0.00 | 47 | 922.7 |
| 20260505013427 | 14 | 256 | 8.0 | 9.7 | 0.00 | 0.00 | 0.00 | 46 | 922.5 |
| 20260505012925 | 14 | 271 | 9.7 | 12.9 | 0.00 | 0.00 | 0.00 | 46 | 922.1 |